Weather History for Keokuk, IA

Change the Weather History Date:

Friday, January 25, 2013

  Actual Average Record
Temperature  
Mean Temperature 34 °F -  
Max Temperature 44 °F 37 °F 63 °F (1981)
Min Temperature 21 °F 18 °F -12 °F (1940)
Degree Days  
Heating Degree Days 32    
Moisture  
Dew Point 13 °F    
Average Humidity 48    
Maximum Humidity 64    
Minimum Humidity 25    
Precipitation  
Precipitation 0.00 in - - ()
Sea Level Pressure  
Sea Level Pressure 30.14 in    
Wind  
Wind Speed 7 mph (West)    
Max Wind Speed 16 mph    
Max Gust Speed 23 mph    
Visibility 10 miles    
Events      
Averages and records for this station are not official NWS values.
T = Trace of Precipitation, MM = Missing Value Source: NWS Daily Summary

Daily Weather History Graph

Daily Weather History Graph

Search for Another Location

Airport:

Trip Planner

Search our weather history database for the weather conditions in past years. The results will help you decide how hot, cold, wet, or windy it might be!

Date:

Astronomy

Jan. 25, 2013 Rise Set
Actual Time 7:20 AM CST 5:15 PM CST
Civil Twilight 6:51 AM CST 5:45 PM CST
Nautical Twilight 6:18 AM CST 6:18 PM CST
Astronomical Twilight 5:46 AM CST 6:50 PM CST
Moon 4:13 PM CST (1/25) 6:00 AM CST (1/25)
Length of Visible Light 10h 53m
Length of Day
9h 54m
Waxing Gibbous, 98% of the Moon is Illuminated
Jan 25
Waxing Gibbous
Jan 26
Full
Feb 3
Last Quarter
Feb 10
New
Feb 17
First Quarter

Hourly Weather History & Observations

Time (CST) Temp. Windchill Dew Point Humidity Pressure Visibility Wind Dir Wind Speed Gust Speed Precip Events Conditions
12:15 AM 24.8 °F 19.1 °F 8.6 °F 50% 30.25 in 10.0 mi SE 4.6 mph - N/A   Overcast
12:35 AM 24.8 °F 16.1 °F 6.8 °F 46% 30.23 in 10.0 mi SSE 8.1 mph - N/A   Overcast
12:55 AM 24.8 °F 17.9 °F 6.8 °F 46% 30.23 in 10.0 mi SSE 5.8 mph - N/A   Overcast
1:15 AM 24.8 °F 16.9 °F 8.6 °F 50% 30.22 in 10.0 mi South 6.9 mph - N/A   Overcast
1:35 AM 24.8 °F 15.3 °F 10.4 °F 54% 30.20 in 10.0 mi South 9.2 mph - N/A   Overcast
1:55 AM 24.8 °F 16.9 °F 10.4 °F 54% 30.19 in 10.0 mi South 6.9 mph - N/A   Overcast
2:15 AM 24.8 °F 17.9 °F 10.4 °F 54% 30.20 in 10.0 mi South 5.8 mph - N/A   Overcast
2:35 AM 24.8 °F 17.9 °F 10.4 °F 54% 30.19 in 10.0 mi South 5.8 mph - N/A   Overcast
2:55 AM 24.8 °F 19.1 °F 10.4 °F 54% 30.19 in 10.0 mi South 4.6 mph - N/A   Overcast
3:15 AM 24.8 °F 20.5 °F 10.4 °F 54% 30.19 in 10.0 mi South 3.5 mph - N/A   Overcast
3:35 AM 24.8 °F - 10.4 °F 54% 30.18 in 10.0 mi Calm Calm - N/A   Overcast
3:55 AM 24.8 °F - 10.4 °F 54% 30.15 in 10.0 mi Calm Calm - N/A   Overcast
4:15 AM 24.8 °F 19.1 °F 10.4 °F 54% 30.13 in 10.0 mi SSE 4.6 mph - N/A   Overcast
4:35 AM 24.8 °F - 10.4 °F 54% 30.13 in 10.0 mi Calm Calm - N/A   Overcast
4:55 AM 24.8 °F 20.5 °F 10.4 °F 54% 30.14 in 10.0 mi SSW 3.5 mph - N/A   Overcast
5:15 AM 24.8 °F - 10.4 °F 54% 30.14 in 10.0 mi Calm Calm - N/A   Overcast
5:35 AM 24.8 °F - 10.4 °F 54% 30.13 in 10.0 mi Calm Calm - N/A   Overcast
5:55 AM 24.8 °F - 10.4 °F 54% 30.13 in 10.0 mi Calm Calm - N/A   Overcast
6:15 AM 24.8 °F - 12.2 °F 59% 30.14 in 10.0 mi Calm Calm - N/A   Overcast
6:35 AM 24.8 °F - 12.2 °F 59% 30.14 in 10.0 mi Calm Calm - N/A   Overcast
6:55 AM 24.8 °F - 12.2 °F 59% 30.14 in 10.0 mi Calm Calm - N/A   Overcast
7:35 AM 24.8 °F 20.5 °F 12.2 °F 59% 30.14 in 10.0 mi West 3.5 mph - N/A   Overcast
7:55 AM 24.8 °F 16.9 °F 12.2 °F 59% 30.14 in 10.0 mi West 6.9 mph - N/A   Overcast
8:15 AM 24.8 °F 16.9 °F 12.2 °F 59% 30.13 in 10.0 mi WSW 6.9 mph - N/A   Overcast
8:35 AM 26.6 °F 19.1 °F 12.2 °F 55% 30.14 in 10.0 mi West 6.9 mph - N/A   Overcast
8:55 AM 26.6 °F 17.5 °F 12.2 °F 55% 30.14 in 10.0 mi West 9.2 mph - N/A   Overcast
9:15 AM 26.6 °F 18.2 °F 12.2 °F 55% 30.14 in 10.0 mi West 8.1 mph - N/A   Mostly Cloudy
9:35 AM 28.4 °F 19.1 °F 12.2 °F 51% 30.14 in 10.0 mi West 10.4 mph 17.3 mph N/A   Scattered Clouds
9:55 AM 28.4 °F 19.1 °F 12.2 °F 51% 30.14 in 10.0 mi West 10.4 mph - N/A   Clear
10:15 AM 30.2 °F 20.8 °F 10.4 °F 44% 30.14 in 10.0 mi West 11.5 mph 19.6 mph N/A   Clear
10:35 AM 30.2 °F 21.3 °F 10.4 °F 44% 30.13 in 10.0 mi West 10.4 mph - N/A   Clear
10:55 AM 32.0 °F 23.6 °F 10.4 °F 41% 30.12 in 10.0 mi West 10.4 mph 16.1 mph N/A   Clear
11:15 AM 33.8 °F 25.3 °F 10.4 °F 38% 30.12 in 10.0 mi West 11.5 mph - N/A   Clear
11:35 AM 33.8 °F 24.3 °F 8.6 °F 35% 30.11 in 10.0 mi West 13.8 mph 18.4 mph N/A   Clear
11:55 AM 35.6 °F 27.1 °F 8.6 °F 33% 30.10 in 10.0 mi West 12.7 mph 17.3 mph N/A   Clear
12:15 PM 35.6 °F 28.0 °F 8.6 °F 33% 30.09 in 10.0 mi West 10.4 mph 16.1 mph N/A   Clear
12:35 PM 35.6 °F 27.1 °F 8.6 °F 33% 30.09 in 10.0 mi West 12.7 mph - N/A   Clear
12:55 PM 37.4 °F 29.3 °F 8.6 °F 30% 30.09 in 10.0 mi WSW 12.7 mph - N/A   Clear
1:15 PM 39.2 °F 31.6 °F 8.6 °F 28% 30.08 in 10.0 mi West 12.7 mph - N/A   Clear
1:35 PM 39.2 °F 30.5 °F 8.6 °F 28% 30.07 in 10.0 mi WSW 16.1 mph 21.9 mph N/A   Clear
1:55 PM 41.0 °F 33.1 °F 10.4 °F 29% 30.06 in 10.0 mi WSW 15.0 mph 20.7 mph N/A   Clear
2:15 PM 42.8 °F 35.8 °F 10.4 °F 27% 30.06 in 10.0 mi West 13.8 mph - N/A   Clear
2:35 PM 42.8 °F 35.8 °F 10.4 °F 27% 30.06 in 10.0 mi West 13.8 mph 21.9 mph N/A   Clear
2:55 PM 44.6 °F 38.1 °F 10.4 °F 25% 30.06 in 10.0 mi West 13.8 mph 19.6 mph N/A   Clear
3:15 PM 44.6 °F 37.8 °F 10.4 °F 25% 30.06 in 10.0 mi West 15.0 mph - N/A   Clear
3:35 PM 44.6 °F 37.4 °F 10.4 °F 25% 30.06 in 10.0 mi West 16.1 mph - N/A   Clear
3:55 PM 44.6 °F 38.8 °F 12.2 °F 27% 30.06 in 10.0 mi West 11.5 mph 23.0 mph N/A   Clear
4:15 PM 44.6 °F 39.2 °F 12.2 °F 27% 30.07 in 10.0 mi West 10.4 mph 13.8 mph N/A   Clear
4:35 PM 44.6 °F 37.4 °F 14.0 °F 29% 30.07 in 10.0 mi WNW 16.1 mph 19.6 mph N/A   Clear
4:55 PM 42.8 °F 37.0 °F 15.8 °F 34% 30.08 in 10.0 mi WNW 10.4 mph 17.3 mph N/A   Clear
5:15 PM 39.2 °F 33.6 °F 17.6 °F 42% 30.09 in 10.0 mi WNW 8.1 mph - N/A   Clear
5:35 PM 39.2 °F 35.9 °F 17.6 °F 42% 30.09 in 10.0 mi WNW 4.6 mph - N/A   Clear
5:55 PM 37.4 °F 31.4 °F 17.6 °F 45% 30.10 in 7.0 mi NW 8.1 mph - N/A   Clear
6:15 PM 37.4 °F 32.8 °F 17.6 °F 45% 30.11 in 10.0 mi NNW 5.8 mph - N/A   Clear
6:35 PM 35.6 °F 30.7 °F 17.6 °F 48% 30.12 in 10.0 mi NW 5.8 mph - N/A   Clear
6:55 PM 35.6 °F 32.8 °F 19.4 °F 52% 30.13 in 10.0 mi NNW 3.5 mph - N/A   Clear
7:15 PM 33.8 °F 30.8 °F 19.4 °F 56% 30.13 in 10.0 mi NNW 3.5 mph - N/A   Clear
7:35 PM 33.8 °F - 19.4 °F 56% 30.14 in 10.0 mi Calm Calm - N/A   Clear
7:55 PM 33.8 °F 29.6 °F 19.4 °F 56% 30.15 in 10.0 mi NW 4.6 mph - N/A   Clear
8:15 PM 32.0 °F 26.4 °F 19.4 °F 60% 30.16 in 10.0 mi NW 5.8 mph - N/A   Clear
8:35 PM 32.0 °F 24.2 °F 19.4 °F 60% 30.16 in 10.0 mi NW 9.2 mph - N/A   Clear
8:55 PM 33.8 °F 25.8 °F 19.4 °F 56% 30.16 in 10.0 mi NW 10.4 mph - N/A   Clear
9:15 PM 33.8 °F 26.4 °F 21.2 °F 60% 30.17 in 10.0 mi NW 9.2 mph 18.4 mph N/A   Clear
9:35 PM 32.0 °F 24.2 °F 21.2 °F 64% 30.18 in 10.0 mi NW 9.2 mph 16.1 mph N/A   Clear
9:55 PM 32.0 °F 23.6 °F 21.2 °F 64% 30.20 in 10.0 mi NNW 10.4 mph 16.1 mph N/A   Clear
10:15 PM 28.4 °F 18.0 °F 17.6 °F 64% 30.22 in 10.0 mi North 12.7 mph 20.7 mph N/A   Clear
10:35 PM 26.6 °F 15.7 °F 14.0 °F 59% 30.24 in 10.0 mi North 12.7 mph - N/A   Clear
10:55 PM 24.8 °F 14.0 °F 12.2 °F 59% 30.25 in 10.0 mi North 11.5 mph 16.1 mph N/A   Clear
11:15 PM 24.8 °F 14.6 °F 10.4 °F 54% 30.25 in 10.0 mi North 10.4 mph - N/A   Clear
11:35 PM 23.0 °F 13.9 °F 10.4 °F 59% 30.26 in 10.0 mi North 8.1 mph - N/A   Clear
11:55 PM 21.2 °F 10.9 °F 10.4 °F 63% 30.26 in 10.0 mi North 9.2 mph - N/A   Clear